When you browse on this site, cookies collect data to enhance your experience and personalize the content and advertising you see.
Visit our Privacy Policy to learn more. By continuing to use the site, you agree to this use of cookies and data.
  • In Hungary
  • List of Countries
  • For 7 days
  • Water Temperature
  • Weather Map
  • News
  • Weather Widgets
  • user-avatar
    Login

    Hourly Weather Domanowo

    Today, 19 September, Thursday

    Time Temperature Precipitation Wind Pressure Humidity
    00:00 +5°C° 0 mm 4 mps 749 mmHg 90%
    01:00 +5°C° 0 mm 4 mps 750 mmHg 91%
    02:00 +4°C° 0 mm 4 mps 750 mmHg 92%
    03:00 +4°C° 0 mm 4 mps 750 mmHg 92%
    04:00 +4°C° 0 mm 4 mps 750 mmHg 92%
    05:00 +5°C° 0 mm 4 mps 751 mmHg 91%
    06:00 +5°C° 0 mm 4 mps 751 mmHg 90%
    07:00 +6°C° 0 mm 4 mps 751 mmHg 89%
    08:00 +6°C° 0 mm 5 mps 751 mmHg 88%
    09:00 +8°C° 0.1 mm 5 mps 752 mmHg 81%
    10:00 +10°C° 0.1 mm 5 mps 752 mmHg 73%
    11:00 +12°C° 0.1 mm 5 mps 752 mmHg 65%
    12:00 +13°C° 0.3 mm 5 mps 752 mmHg 62%
    13:00 +14°C° 0.3 mm 5 mps 752 mmHg 59%
    14:00 +14°C° 0.3 mm 6 mps 752 mmHg 56%
    15:00 +14°C° 0.1 mm 5 mps 752 mmHg 58%
    16:00 +13°C° 0.1 mm 5 mps 752 mmHg 60%
    17:00 +13°C° 0.1 mm 4 mps 752 mmHg 63%
    18:00 +11°C° 0.1 mm 4 mps 752 mmHg 69%
    19:00 +10°C° 0.1 mm 4 mps 752 mmHg 75%
    20:00 +8°C° 0.1 mm 3 mps 753 mmHg 81%
    21:00 +6°C° 0 mm 4 mps 753 mmHg 85%
    22:00 +6°C° 0 mm 4 mps 753 mmHg 88%
    23:00 +5°C° 0 mm 4 mps 754 mmHg 91%

    Tomorrow, 20 September, Friday

    Time Temperature Precipitation Wind Pressure Humidity
    00:00 +5°C° 0.1 mm 4 mps 754 mmHg 92%
    01:00 +5°C° 0.1 mm 4 mps 754 mmHg 93%
    02:00 +5°C° 0.1 mm 4 mps 754 mmHg 94%
    03:00 +4°C° 0 mm 4 mps 754 mmHg 95%
    04:00 +4°C° 0 mm 4 mps 754 mmHg 95%
    05:00 +3°C° 0 mm 4 mps 755 mmHg 95%
    06:00 +4°C° 0 mm 4 mps 755 mmHg 92%
    07:00 +5°C° 0 mm 4 mps 755 mmHg 89%
    08:00 +5°C° 0 mm 4 mps 755 mmHg 85%
    09:00 +7°C° 0.1 mm 4 mps 755 mmHg 79%
    10:00 +8°C° 0.1 mm 4 mps 755 mmHg 72%
    11:00 +10°C° 0.1 mm 5 mps 756 mmHg 66%
    12:00 +10°C° 0.2 mm 5 mps 755 mmHg 62%
    13:00 +12°C° 0.2 mm 5 mps 755 mmHg 59%
    14:00 +13°C° 0.2 mm 5 mps 755 mmHg 56%
    15:00 +13°C° 0.2 mm 4 mps 755 mmHg 58%
    16:00 +12°C° 0.2 mm 3 mps 755 mmHg 61%
    17:00 +12°C° 0.2 mm 3 mps 755 mmHg 63%
    18:00 +12°C° 0 mm 2 mps 755 mmHg 67%
    19:00 +9°C° 0 mm 2 mps 755 mmHg 71%
    20:00 +9°C° 0 mm 1 mps 755 mmHg 76%
    21:00 +7°C° 0 mm 2 mps 755 mmHg 76%
    22:00 +7°C° 0 mm 2 mps 755 mmHg 76%
    23:00 +7°C° 0 mm 2 mps 755 mmHg 77%

    Day after tomorrow, 21 September, Saturday

    Time Temperature Precipitation Wind Pressure Humidity
    00:00 +5°C° 0 mm 3 mps 755 mmHg 79%
    01:00 +5°C° 0 mm 3 mps 755 mmHg 81%
    02:00 +5°C° 0 mm 3 mps 754 mmHg 83%
    03:00 +6°C° 0 mm 4 mps 754 mmHg 83%
    04:00 +7°C° 0 mm 4 mps 754 mmHg 83%
    05:00 +7°C° 0 mm 5 mps 754 mmHg 84%
    06:00 +8°C° 0 mm 5 mps 754 mmHg 85%
    07:00 +8°C° 0 mm 5 mps 754 mmHg 87%
    08:00 +8°C° 0 mm 6 mps 754 mmHg 89%
    09:00 +10°C° 0 mm 6 mps 754 mmHg 85%
    10:00 +11°C° 0 mm 6 mps 754 mmHg 80%
    11:00 +14°C° 0 mm 6 mps 754 mmHg 76%
    12:00 +14°C° 0 mm 6 mps 754 mmHg 75%
    13:00 +15°C° 0 mm 6 mps 754 mmHg 73%
    14:00 +15°C° 0 mm 6 mps 753 mmHg 71%
    15:00 +15°C° 0 mm 6 mps 753 mmHg 72%
    16:00 +15°C° 0 mm 5 mps 753 mmHg 72%
    17:00 +15°C° 0 mm 4 mps 753 mmHg 73%
    18:00 +13°C° 0 mm 4 mps 753 mmHg 78%
    19:00 +12°C° 0 mm 3 mps 753 mmHg 83%
    20:00 +12°C° 0 mm 2 mps 753 mmHg 88%
    21:00 +10°C° 0 mm 2 mps 753 mmHg 89%
    22:00 +10°C° 0 mm 3 mps 753 mmHg 91%
    23:00 +9°C° 0 mm 3 mps 753 mmHg 92%

    22 September, Sunday

    Time Temperature Precipitation Wind Pressure Humidity
    00:00 +9°C° 0 mm 3 mps 752 mmHg 93%
    01:00 +9°C° 0 mm 3 mps 752 mmHg 93%
    02:00 +9°C° 0 mm 3 mps 752 mmHg 94%
    03:00 +9°C° 0 mm 3 mps 752 mmHg 94%
    04:00 +9°C° 0 mm 3 mps 752 mmHg 94%
    05:00 +9°C° 0 mm 3 mps 752 mmHg 94%
    06:00 +9°C° 0 mm 3 mps 752 mmHg 91%
    07:00 +10°C° 0 mm 3 mps 752 mmHg 88%
    08:00 +11°C° 0 mm 3 mps 752 mmHg 85%
    09:00 +13°C° 0 mm 3 mps 752 mmHg 78%
    10:00 +16°C° 0 mm 3 mps 752 mmHg 71%
    11:00 +17°C° 0 mm 3 mps 753 mmHg 64%
    12:00 +18°C° 0 mm 3 mps 752 mmHg 61%
    13:00 +19°C° 0 mm 2 mps 752 mmHg 58%
    14:00 +20°C° 0 mm 2 mps 752 mmHg 55%
    15:00 +20°C° 0 mm 2 mps 752 mmHg 57%
    16:00 +21°C° 0 mm 1 mps 751 mmHg 60%
    17:00 +20°C° 0 mm 1 mps 751 mmHg 62%
    18:00 +17°C° 0 mm 2 mps 751 mmHg 70%
    19:00 +15°C° 0 mm 2 mps 751 mmHg 78%
    20:00 +12°C° 0 mm 3 mps 751 mmHg 87%
    21:00 +12°C° 0 mm 3 mps 751 mmHg 89%
    22:00 +11°C° 0 mm 4 mps 751 mmHg 91%
    23:00 +11°C° 0 mm 4 mps 751 mmHg 94%

    23 September, Monday

    Time Temperature Precipitation Wind Pressure Humidity
    00:00 +10°C° 0 mm 4 mps 751 mmHg 94%
    01:00 +10°C° 0 mm 4 mps 751 mmHg 94%
    02:00 +10°C° 0 mm 4 mps 750 mmHg 94%
    03:00 +10°C° 0 mm 4 mps 750 mmHg 94%
    04:00 +10°C° 0 mm 4 mps 749 mmHg 94%
    05:00 +10°C° 0 mm 4 mps 749 mmHg 94%
    06:00 +10°C° 0 mm 4 mps 748 mmHg 89%
    07:00 +10°C° 0 mm 5 mps 748 mmHg 85%
    08:00 +10°C° 0 mm 5 mps 747 mmHg 80%
    09:00 +13°C° 0 mm 5 mps 747 mmHg 72%
    10:00 +14°C° 0 mm 5 mps 747 mmHg 64%
    11:00 +16°C° 0 mm 5 mps 746 mmHg 56%
    12:00 +18°C° 0 mm 4 mps 746 mmHg 53%
    13:00 +19°C° 0 mm 3 mps 745 mmHg 50%
    14:00 +20°C° 0 mm 3 mps 744 mmHg 46%
    15:00 +20°C° 0 mm 3 mps 744 mmHg 49%
    16:00 +20°C° 0 mm 2 mps 744 mmHg 52%
    17:00 +20°C° 0 mm 2 mps 743 mmHg 55%
    18:00 +18°C° 0 mm 2 mps 743 mmHg 58%
    19:00 +17°C° 0 mm 2 mps 743 mmHg 62%
    20:00 +15°C° 0 mm 1 mps 743 mmHg 66%
    21:00 +15°C° 0 mm 2 mps 743 mmHg 66%
    22:00 +14°C° 0 mm 3 mps 743 mmHg 65%
    23:00 +14°C° 0 mm 4 mps 743 mmHg 65%

    24 September, Tuesday

    Time Temperature Precipitation Wind Pressure Humidity
    00:00 +14°C° 0.1 mm 4 mps 743 mmHg 71%
    01:00 +13°C° 0.1 mm 4 mps 743 mmHg 76%
    02:00 +13°C° 0.1 mm 4 mps 743 mmHg 81%
    03:00 +13°C° 1 mm 4 mps 743 mmHg 86%
    04:00 +12°C° 1 mm 4 mps 742 mmHg 91%
    05:00 +12°C° 1 mm 3 mps 742 mmHg 96%
    06:00 +12°C° 1.1 mm 4 mps 742 mmHg 95%
    07:00 +12°C° 1.1 mm 5 mps 742 mmHg 93%
    08:00 +11°C° 1.1 mm 7 mps 742 mmHg 92%
    09:00 +12°C° 0.3 mm 7 mps 743 mmHg 91%
    10:00 +12°C° 0.3 mm 7 mps 743 mmHg 90%
    11:00 +12°C° 0.3 mm 7 mps 743 mmHg 89%
    12:00 +12°C° 0.1 mm 7 mps 743 mmHg 90%
    13:00 +11°C° 0.1 mm 6 mps 743 mmHg 91%
    14:00 +11°C° 0.1 mm 6 mps 743 mmHg 91%
    15:00 +13°C° 0.4 mm 5 mps 743 mmHg 91%
    16:00 +13°C° 0.4 mm 5 mps 743 mmHg 91%
    17:00 +13°C° 0.4 mm 4 mps 744 mmHg 90%
    18:00 +12°C° 0.1 mm 4 mps 744 mmHg 92%
    19:00 +12°C° 0.1 mm 3 mps 744 mmHg 93%
    20:00 +12°C° 0.1 mm 3 mps 744 mmHg 95%
    21:00 +11°C° 0 mm 3 mps 745 mmHg 95%
    22:00 +11°C° 0 mm 3 mps 745 mmHg 95%
    23:00 +10°C° 0 mm 2 mps 745 mmHg 96%
    Show more